Location: Arcadia
(34.1397°N, 118.0353°W)
Time: 22:24:36
(UTC+00:00)

Cosmos 676 Rocket - Pass Details

Date: 08 September 2024
Orbit: 751 x 781 km, 74.0° (Epoch: 13 October)

Event Time Altitude Azimuth Distance (km) Brightness Sun altitude
Exits shadow 12:29:33 - 207° (SSW) 2,482 6.2 -13.3°
Reaches altitude 10° 12:30:07 10° 208° (SSW) 2,262 6.0 -13.2°
Maximum altitude 12:35:10 60° 289° (WNW) 855 4.0 -12.1°
Drops below altitude 10° 12:40:17 10° 9° (N) 2,282 6.8 -11.1°
Sets 12:42:42 0° 13° (NNE) 3,213 7.6 -10.6°
